Chignik, AK

4:04 AM AKST on December 12, 2017 (GMT -0900)
Chignik

Weather History for PAJC - October, 2012

Change the Weather History Date:

Thursday, October 4, 2012

  Actual Average Record
Temperature  
Mean Temperature 48 °F -  
Max Temperature 51 °F 46 °F 53 °F (2016)
Min Temperature 46 °F 40 °F 35 °F (2008)
Degree Days  
Heating Degree Days 16    
Moisture  
Dew Point 36 °F    
Average Humidity 59    
Maximum Humidity 76    
Minimum Humidity 44    
Precipitation  
Precipitation 0.00 in - - ()
Sea Level Pressure  
Sea Level Pressure 29.77 in    
Wind  
Wind Speed - (North)    
Max Wind Speed -    
Max Gust Speed -    
Visibility 10 miles    
Events      
Averages and records for this station are not official NWS values.
T = Trace of Precipitation, MM = Missing Value Source: NWS Daily Summary

Daily Weather History Graph

Daily Weather History Graph

Search for Another Location

Airport or City:

Trip Planner

Search our weather history database for the weather conditions in past years. The results will help you decide how hot, cold, wet, or windy it might be!

Date:

Astronomy

Oct. 04, 2012 Rise Set
Actual Time 8:44 AM AKDT 7:58 PM AKDT
Civil Twilight 8:06 AM AKDT 8:35 PM AKDT
Nautical Twilight 7:23 AM AKDT 9:19 PM AKDT
Astronomical Twilight 6:38 AM AKDT 10:03 PM AKDT
Moon 9:49 PM AKDT (10/4) 2:04 PM AKDT (10/4)
Length of Visible Light 12h 29m
Length of Day
11h 14m
Waning Gibbous, 81% of the Moon is Illuminated
Oct 4
Waning Gibbous
Oct 7
Last Quarter
Oct 15
New
Oct 21
First Quarter
Oct 29
Full

Hourly Weather History & Observations

Time (AKDT) Temp. Dew Point Humidity Pressure Visibility Wind Dir Wind Speed Gust Speed Precip Events Conditions
12:16 AM 51.8 °F 39.2 °F 62% 29.50 in 10.0 mi North - - N/A   Mostly Cloudy
12:36 AM 51.8 °F 39.2 °F 62% 29.50 in 10.0 mi North - - N/A   Mostly Cloudy
12:56 AM 51.8 °F 39.2 °F 62% 29.50 in 10.0 mi North - - N/A   Mostly Cloudy
1:16 AM 51.8 °F 39.2 °F 62% 29.50 in 10.0 mi North - - N/A   Overcast
1:36 AM 51.8 °F 39.2 °F 62% 29.51 in 10.0 mi North - - N/A   Overcast
1:56 AM 51.8 °F 39.2 °F 62% 29.51 in 10.0 mi North - - N/A   Mostly Cloudy
2:16 AM 51.8 °F 39.2 °F 62% 29.52 in 10.0 mi North - - N/A   Mostly Cloudy
2:36 AM 51.8 °F 39.2 °F 62% 29.52 in 10.0 mi North - - N/A   Mostly Cloudy
2:56 AM - - N/A% 29.52 in 10.0 mi North - - N/A   Overcast
3:16 AM 51.8 °F 39.2 °F 62% 29.52 in 10.0 mi North - - N/A   Overcast
3:36 AM 51.8 °F 39.2 °F 62% 29.55 in 10.0 mi North - - N/A   Mostly Cloudy
3:56 AM 51.8 °F 37.4 °F 58% 29.56 in 10.0 mi North - - N/A   Mostly Cloudy
4:16 AM 51.8 °F 37.4 °F 58% 29.57 in 10.0 mi North - - N/A   Overcast
4:36 AM 51.8 °F 37.4 °F 58% 29.59 in 10.0 mi North - - N/A   Overcast
4:56 AM 51.8 °F 37.4 °F 58% 29.60 in 10.0 mi North - - N/A   Overcast
5:16 AM 51.8 °F 37.4 °F 58% 29.61 in 10.0 mi North - - N/A   Overcast
5:36 AM 50.0 °F 37.4 °F 62% 29.61 in 10.0 mi North - - N/A   Overcast
5:56 AM 50.0 °F 37.4 °F 62% 29.63 in 10.0 mi North - - N/A   Overcast
6:16 AM 50.0 °F 37.4 °F 62% 29.64 in 10.0 mi North - - N/A   Overcast
6:36 AM 51.8 °F 35.6 °F 54% 29.66 in 10.0 mi North - - N/A   Overcast
6:56 AM 50.0 °F 37.4 °F 62% 29.67 in 10.0 mi North - - N/A   Overcast
7:16 AM 50.0 °F 37.4 °F 62% 29.67 in 10.0 mi North - - N/A   Overcast
7:36 AM 50.0 °F 35.6 °F 58% 29.68 in 10.0 mi North - - N/A   Overcast
7:56 AM 48.2 °F 37.4 °F 66% 29.69 in 10.0 mi North - - N/A   Overcast
8:16 AM 48.2 °F 35.6 °F 62% 29.70 in 10.0 mi North - - N/A   Overcast
8:36 AM 50.0 °F 33.8 °F 54% 29.71 in 10.0 mi North - - N/A   Overcast
8:56 AM 50.0 °F 32.0 °F 50% 29.72 in 10.0 mi North - - N/A   Overcast
9:16 AM 50.0 °F 32.0 °F 50% 29.72 in 10.0 mi North - - N/A   Overcast
9:36 AM 50.0 °F 33.8 °F 54% 29.73 in 10.0 mi North - - N/A   Overcast
9:56 AM 50.0 °F 33.8 °F 54% 29.74 in 10.0 mi North - - N/A   Overcast
10:16 AM 48.2 °F 35.6 °F 62% 29.75 in 10.0 mi North - - N/A   Overcast
10:36 AM 48.2 °F 37.4 °F 66% 29.76 in 10.0 mi North - - N/A   Overcast
10:56 AM 48.2 °F 35.6 °F 62% 29.77 in 10.0 mi North - - N/A   Overcast
11:16 AM 48.2 °F 35.6 °F 62% 29.78 in 10.0 mi North - - N/A   Overcast
11:36 AM 48.2 °F 35.6 °F 62% 29.79 in 10.0 mi North - - N/A   Overcast
11:56 AM 48.2 °F 37.4 °F 66% 29.80 in 10.0 mi North - - N/A   Overcast
12:16 PM 48.2 °F 37.4 °F 66% 29.81 in 10.0 mi North - - N/A   Overcast
12:36 PM 48.2 °F 37.4 °F 66% 29.81 in 10.0 mi North - - N/A   Overcast
12:56 PM 48.2 °F 37.4 °F 66% 29.82 in 10.0 mi North - - N/A   Overcast
1:16 PM 48.2 °F 37.4 °F 66% 29.83 in 8.0 mi North - - N/A   Overcast
1:36 PM 48.2 °F 39.2 °F 71% 29.84 in 10.0 mi North - - N/A   Overcast
1:56 PM 48.2 °F 41.0 °F 76% 29.85 in 10.0 mi North - - N/A   Overcast
2:16 PM 48.2 °F 41.0 °F 76% 29.86 in 10.0 mi North - - N/A   Overcast
2:36 PM 48.2 °F 39.2 °F 71% 29.86 in 10.0 mi North - - N/A   Overcast
2:56 PM 50.0 °F 39.2 °F 66% 29.86 in 10.0 mi North - - N/A   Overcast
3:16 PM 51.8 °F 39.2 °F 62% 29.86 in 10.0 mi North - - N/A   Overcast
3:36 PM 51.8 °F 35.6 °F 54% 29.87 in 10.0 mi North - - N/A   Overcast
3:56 PM 51.8 °F 35.6 °F 54% 29.86 in 10.0 mi North - - N/A   Overcast
4:16 PM 51.8 °F 35.6 °F 54% 29.86 in 10.0 mi North - - N/A   Overcast
4:36 PM 51.8 °F 33.8 °F 50% 29.87 in 10.0 mi North - - N/A   Mostly Cloudy
4:56 PM 51.8 °F 33.8 °F 50% 29.88 in 10.0 mi North - - N/A   Scattered Clouds
5:16 PM 51.8 °F 30.2 °F 44% 29.88 in 10.0 mi North - - N/A   Clear
5:36 PM 51.8 °F 30.2 °F 44% 29.89 in 10.0 mi North - - N/A   Clear
5:56 PM 51.8 °F 30.2 °F 44% 29.90 in 10.0 mi North - - N/A   Clear
6:16 PM 51.8 °F 30.2 °F 44% 29.90 in 10.0 mi North - - N/A   Clear
6:36 PM 50.0 °F 30.2 °F 47% 29.91 in 10.0 mi North - - N/A   Partly Cloudy
6:56 PM 50.0 °F 32.0 °F 50% 29.91 in 10.0 mi North - - N/A   Partly Cloudy
7:16 PM 50.0 °F 30.2 °F 47% 29.92 in 10.0 mi North - - N/A   Scattered Clouds
7:36 PM 48.2 °F 33.8 °F 58% 29.93 in 10.0 mi North - - N/A   Partly Cloudy
7:56 PM 48.2 °F 30.2 °F 50% 29.94 in 10.0 mi North - - N/A   Scattered Clouds
8:16 PM 48.2 °F 32.0 °F 54% 29.94 in 10.0 mi North - - N/A   Mostly Cloudy
8:36 PM 48.2 °F 33.8 °F 58% 29.95 in 10.0 mi North - - N/A   Overcast
8:56 PM 48.2 °F 33.8 °F 58% 29.95 in 10.0 mi North - - N/A   Overcast
9:16 PM 48.2 °F 33.8 °F 58% 29.96 in 10.0 mi North - - N/A   Overcast
9:36 PM 46.4 °F 35.6 °F 66% 29.97 in 10.0 mi North - - N/A   Overcast
9:56 PM 48.2 °F 32.0 °F 54% 29.97 in 10.0 mi North - - N/A   Overcast
10:16 PM 48.2 °F 32.0 °F 54% 29.98 in 10.0 mi North - - N/A   Overcast
10:36 PM 48.2 °F 33.8 °F 58% 30.00 in 10.0 mi North - - N/A   Overcast
10:56 PM 46.4 °F 33.8 °F 62% 30.00 in 10.0 mi North - - N/A   Overcast
11:16 PM 46.4 °F 33.8 °F 62% 30.01 in 10.0 mi North - - N/A   Mostly Cloudy
11:36 PM 48.2 °F 32.0 °F 54% 30.01 in 10.0 mi North - - N/A   Mostly Cloudy
11:56 PM 46.4 °F 33.8 °F 62% 30.02 in 10.0 mi North - - N/A   Mostly Cloudy